STARLINK-1691

decayed
NORAD ID: 46373 Int'l Des: 2020-062 Owner: SPXS Country: US Constellation: starlink
LEOCIRCULAR

关于 STARLINK-1691

正在加载描述...

高度历史

Altitude vs Time

uPlot chart will show altitude changes over time

两行轨道根数

1 46373U 20062BA 21229.46356932 .57479253 12924-4 48391-3 0 9999
2 46373 53.0406 233.4740 0024998 41.4098 81.2348 16.49810577 54311
Epoch: Aug 17, 2021 • Age: 35754 hours

当前状态

Position data unavailable
发射日期 Sep 3, 2020
运行时间 5 years
衰减日期 Aug 17, 2021
类型 internet

技术详情

分类 Payload
质量 260.00 kg
干质量 248.00 kg
总质量 260.00 kg
长度 0.20 m
直径 2.80 m
跨度 9.00 m
形状 Box + pan
制造商 SPXS
平台类型 Starlink
阶段状态 Reentered
所有者/国家 SPXS/US

大型星座

Loading constellations...